Regional Weather Roundup
Issued by NWS

Home | Current Version | Previous Version | Graphics & Text | Print | Product List | Glossary On
Versions: 1 2 3 4 5 6 7 8 9 10 11 12 13 14 15 16 17 18 19 20 21 22 23 24 25 26 27 28 29 30 31 32 33 34 35 36 37 38 39 40 41 42 43 44 45 46 47 48 49 50
000
ASUS43 KIND 260809
RWRIN

WEATHER ROUNDUP FOR INDIANA
NATIONAL WEATHER SERVICE INDIANAPOLIS IN
400 AM EDT TUE JUL 26 2016

NOTE: "FAIR" INDICATES FEW OR NO CLOUDS BELOW 12,000 FEET WITH NO
SIGNIFICANT WEATHER AND/OR OBSTRUCTIONS TO VISIBILITY.

* - STATION DOES NOT REPORT WEATHER SUCH AS PRECIPITATION OR FOG.

+ - STATION NOT QUALITY CONTROLLED BY THE NATIONAL WEATHER SERVICE.
    USE DATA WITH CAUTION...ESPECIALLY DEWPOINT AND RELATIVE
    HUMIDITY OBSERVATIONS.

INZ001>003-010>013-019-020-260900-
NORTHWEST INDIANA

CITY           SKY/WX    TMP DP  RH WIND       PRES   REMARKS
GARY /AIRPORT/ PTCLDY    69  69 100 CALM      30.03S
KNOX *+        CLEAR     64  63  94 CALM      30.03S
LA PORTE +     CLEAR    N/A N/A N/A CALM      30.05S
MICHIGAN CITY+ CLEAR     63  63 100 CALM      30.04S
MONTICELLO +   CLEAR     65  61  87 CALM      30.02S
RENSSELAER +   CLEAR     64  64 100 CALM      30.03F
VALPARAISO     CLEAR     67  65  93 CALM      30.04S

$$

LMZ046-743>745-260900-
SOUTHERN LAKE MICHIGAN

STATION/POSITION TIME  TEMP    WIND        PRES    WAVE
                       AIR SEA DIR/SP/G            HT
                 (UTC) (F)     (DEG/KT/KT) (MB)    (FT)
BURNS HARBOR     0700   76      CALM  /  4 1017.3S
MICHIGAN CITY    0700   72     130/  4/  4   N/A
5NW MICH CITY    0800   74 75  140/  2/  4   N/A     1

$$

INZ004-005-014>016-021>024-260900-
NORTH CENTRAL INDIANA

CITY           SKY/WX    TMP DP  RH WIND       PRES   REMARKS
GOSHEN         CLOUDY    64  61  90 CALM      30.04S
LOGANSPORT +   CLEAR     63  61  94 E3        30.04S
PERU/GRISSOM   CLOUDY    64  64 100 CALM      30.02S
ROCHESTER +    PTCLDY    64  64 100 CALM      30.04S
SOUTH BEND     CLOUDY    65  63  93 CALM      30.04S
WARSAW +       CLOUDY    63  63 100 CALM      30.04S

$$

INZ006>009-017-018-025>027-260900-
NORTHEAST INDIANA

CITY           SKY/WX    TMP DP  RH WIND       PRES   REMARKS
ANGOLA *+        N/A     63  63 100 CALM      30.04S
AUBURN +       PTCLDY    64  61  88 CALM      30.04S
FORT WAYNE     PTCLDY    64  61  90 CALM      30.03F
HUNTINGTON +   CLEAR     64  62  96 CALM      30.03S FOG

$$

INZ028-029-035-036-043>045-051>053-260900-
WEST CENTRAL INDIANA

CITY           SKY/WX    TMP DP  RH WIND       PRES   REMARKS
CRAWFORDSVL +  PTCLDY    69  68  98 CALM      30.02F
GREENCASTLE +  CLOUDY    72  72 100 CALM      30.02F
LAFAYETTE      MOCLDY    67  65  93 NE6       30.01F
TERRE HAUTE    PTCLDY    74  71  91 NE3       30.00F

$$

INZ030>032-037>040-046>048-054>057-064-065-260900-
CENTRAL INDIANA

CITY           SKY/WX    TMP DP  RH WIND       PRES   REMARKS
INDIANAPOLIS   CLOUDY    76  67  73 NE7       30.02S
-EAGLE CREEK   MOCLDY    75  66  73 CALM      30.01F
KOKOMO *+      PTCLDY    64  57  77 CALM      30.04S
MARION +       MOCLDY    61  61 100 CALM      30.04S
MT COMFORT *+  CLOUDY    70  66  88 CALM      30.03S
SHELBYVILLE    CLOUDY    75  70  84 NE3       30.01S
ZIONSVILLE +   CLOUDY    67  65  94 N5        30.04S

$$

INZ033-034-041-042-049-050-058-059-260900-
EAST CENTRAL INDIANA

CITY           SKY/WX    TMP DP  RH WIND       PRES   REMARKS
MUNCIE         CLOUDY    69  65  86 CALM      30.03F

$$

INZ060-061-067>069-081>083-085>088-260900-
SOUTHWEST INDIANA

CITY           SKY/WX    TMP DP  RH WIND       PRES   REMARKS
EVANSVILLE     CLEAR     73  71  93 CALM      29.99F
HUNTINGBURG *+ CLOUDY    75  72  88 CALM      29.99F
WASHINGTON +   MOCLDY    74  74 100 MISG      29.98S FOG

$$

INZ062-063-066-070>080-084-089>092-260900-
SOUTH CENTRAL AND SOUTHEAST INDIANA

CITY           SKY/WX    TMP DP  RH WIND       PRES   REMARKS
BLOOMINGTON    CLOUDY    75  72  90 CALM      30.01F
MADISON *+     PTCLDY    73  72  94 CALM      30.03S

$$




USA.gov is the U.S. government's official web portal to all federal, state and local government web resources and services.